TimeEST,TemperatureF,Dew PointF,Humidity,Sea Level PressureIn,VisibilityMPH,Wind Direction,Wind SpeedMPH,Gust SpeedMPH,PrecipitationIn,Events,Conditions,WindDirDegrees,DateUTC
12:53 AM,-0.0,-4.0,83,30.20,10.0,Calm,Calm,-,N/A,,Overcast,0,2014-01-01 05:53:00
1:20 AM,3.2,-0.4,85,30.17,8.0,SW,5.8,-,N/A,,Overcast,220,2014-01-01 06:20:00
1:53 AM,3.9,-0.0,84,30.22,10.0,Calm,Calm,-,N/A,,Mostly Cloudy,0,2014-01-01 06:53:00
2:12 AM,-0.4,-2.2,92,30.20,10.0,Calm,Calm,-,N/A,,Scattered Clouds,0,2014-01-01 07:12:00
2:53 AM,-8.0,-11.0,86,30.26,9.0,Calm,Calm,-,N/A,,Clear,0,2014-01-01 07:53:00
3:53 AM,-2.0,-9.0,72,30.28,10.0,WNW,5.8,-,N/A,,Mostly Cloudy,300,2014-01-01 08:53:00
4:17 AM,3.2,-0.4,85,30.25,10.0,West,5.8,-,N/A,,Overcast,280,2014-01-01 09:17:00
4:44 AM,3.2,-0.4,85,30.26,10.0,WSW,5.8,-,N/A,,Overcast,250,2014-01-01 09:44:00
4:53 AM,3.0,-0.9,84,30.30,10.0,WSW,4.6,-,N/A,,Overcast,250,2014-01-01 09:53:00
5:30 AM,3.2,-2.2,78,30.29,10.0,WSW,4.6,-,N/A,,Mostly Cloudy,250,2014-01-01 10:30:00
5:53 AM,3.0,-0.9,84,30.34,10.0,West,4.6,-,N/A,,Overcast,270,2014-01-01 10:53:00
6:53 AM,3.9,-0.9,80,30.35,10.0,West,4.6,-,N/A,,Overcast,260,2014-01-01 11:53:00
7:53 AM,3.0,-2.9,76,30.38,10.0,WSW,5.8,-,N/A,,Overcast,250,2014-01-01 12:53:00
8:07 AM,3.2,-4.0,72,30.35,10.0,West,6.9,-,N/A,,Mostly Cloudy,260,2014-01-01 13:07:00
8:53 AM,1.9,-4.0,76,30.42,10.0,West,5.8,-,N/A,,Clear,270,2014-01-01 13:53:00
9:53 AM,3.0,-5.1,69,30.45,10.0,WNW,11.5,-,N/A,,Clear,300,2014-01-01 14:53:00
10:53 AM,1.9,-8.0,63,30.47,10.0,NW,11.5,-,N/A,,Clear,310,2014-01-01 15:53:00
11:53 AM,1.0,-9.0,63,30.47,10.0,WNW,8.1,-,N/A,,Clear,290,2014-01-01 16:53:00
12:53 PM,1.0,-9.0,63,30.47,10.0,West,8.1,-,N/A,,Clear,260,2014-01-01 17:53:00
1:53 PM,1.0,-11.0,57,30.48,10.0,West,11.5,-,N/A,,Clear,280,2014-01-01 18:53:00
2:53 PM,-0.0,-14.1,52,30.50,10.0,WNW,8.1,-,N/A,,Clear,290,2014-01-01 19:53:00
3:53 PM,-2.0,-16.1,51,30.51,10.0,WNW,9.2,-,N/A,,Clear,300,2014-01-01 20:53:00
4:53 PM,-5.1,-16.1,59,30.52,10.0,WNW,3.5,-,N/A,,Clear,300,2014-01-01 21:53:00
5:53 PM,-11.9,-18.9,71,30.53,10.0,Calm,Calm,-,N/A,,Clear,0,2014-01-01 22:53:00
6:53 PM,-14.1,-18.9,79,30.56,10.0,NNE,5.8,-,N/A,,Clear,20,2014-01-01 23:53:00
7:53 PM,-8.0,-18.9,59,30.56,10.0,North,5.8,-,N/A,,Clear,10,2014-01-02 00:53:00
8:53 PM,-9.9,-20.0,61,30.56,10.0,NNE,6.9,-,N/A,,Clear,30,2014-01-02 01:53:00
9:53 PM,-9.9,-20.0,61,30.56,10.0,NE,4.6,-,N/A,,Clear,50,2014-01-02 02:53:00
10:53 PM,-11.0,-20.0,64,30.57,10.0,NE,6.9,-,N/A,,Partly Cloudy,40,2014-01-02 03:53:00
11:53 PM,-9.9,-20.0,61,30.57,10.0,NE,9.2,-,N/A,,Clear,40,2014-01-02 04:53:00